TimeMST,TemperatureF,Dew PointF,Humidity,Sea Level PressureIn,VisibilityMPH,Wind Direction,Wind SpeedMPH,Gust SpeedMPH,PrecipitationIn,Events,Conditions,WindDirDegrees,DateUTC
12:55 AM,72.0,43.5,36,29.90,10.0,WNW,3.5,-,N/A,,Clear,290,2012-10-05 07:55:00
1:55 AM,69.1,44.2,41,29.90,9.0,NW,3.5,-,N/A,,Clear,320,2012-10-05 08:55:00
2:55 AM,66.7,41.9,40,29.91,10.0,NNW,6.9,-,N/A,,Clear,330,2012-10-05 09:55:00
3:55 AM,65.3,41.9,42,29.91,10.0,North,4.6,-,N/A,,Clear,360,2012-10-05 10:55:00
4:55 AM,65.3,38.1,37,29.92,10.0,NNW,4.6,-,N/A,,Clear,340,2012-10-05 11:55:00
5:55 AM,63.7,39.9,42,29.94,10.0,NNW,4.6,-,N/A,,Clear,340,2012-10-05 12:55:00
6:55 AM,63.5,40.8,43,29.95,10.0,NNW,5.8,-,N/A,,Clear,340,2012-10-05 13:55:00
7:55 AM,72.1,43.0,35,29.96,10.0,North,3.5,-,N/A,,Clear,10,2012-10-05 14:55:00
8:55 AM,77.4,44.4,31,29.98,10.0,ENE,3.5,-,N/A,,Clear,60,2012-10-05 15:55:00
9:55 AM,81.0,45.5,29,29.97,10.0,NE,4.6,-,N/A,,Clear,40,2012-10-05 16:55:00
10:55 AM,84.9,45.7,25,29.95,10.0,Calm,Calm,-,N/A,,Clear,0,2012-10-05 17:55:00
11:55 AM,89.4,43.7,20,29.93,10.0,ENE,3.5,-,N/A,,Clear,70,2012-10-05 18:55:00
12:55 PM,90.7,41.2,18,29.90,10.0,South,4.6,-,N/A,,Clear,180,2012-10-05 19:55:00
1:55 PM,92.3,37.2,14,29.86,10.0,Variable,3.5,-,N/A,,Clear,0,2012-10-05 20:55:00
2:55 PM,93.4,36.3,13,29.84,10.0,SW,4.6,-,N/A,,Clear,220,2012-10-05 21:55:00
3:55 PM,93.9,30.0,10,29.83,10.0,South,3.5,-,N/A,,Clear,170,2012-10-05 22:55:00
4:55 PM,93.4,36.3,13,29.82,10.0,SW,8.1,-,N/A,,Clear,230,2012-10-05 23:55:00
5:55 PM,91.4,38.5,16,29.82,10.0,WSW,4.6,-,N/A,,Clear,250,2012-10-06 00:55:00
6:55 PM,85.5,41.9,22,29.83,10.0,Calm,Calm,-,N/A,,Clear,0,2012-10-06 01:55:00
7:55 PM,80.8,43.7,27,29.83,10.0,NNW,3.5,-,N/A,,Clear,330,2012-10-06 02:55:00
8:55 PM,78.3,43.2,29,29.83,10.0,NW,4.6,-,N/A,,Clear,320,2012-10-06 03:55:00
9:55 PM,76.1,43.2,31,29.83,10.0,NNW,3.5,-,N/A,,Clear,340,2012-10-06 04:55:00
10:55 PM,74.8,44.2,33,29.82,10.0,North,4.6,-,N/A,,Clear,360,2012-10-06 05:55:00
11:55 PM,75.0,41.5,30,29.82,10.0,North,5.8,-,N/A,,Clear,360,2012-10-06 06:55:00